User: anonymous   Login
Location: Oshawa
(43.9000°N, 78.8670°W)
Time: 04:45:15
(UTC-05:00)
Language:

Cosmos 2333 Rocket - Orbit

View from above orbital plane
View from above orbital plane
View from above satellite
View from above satellite

Ground track
Ground track

The orbit data is extracted from the following two-line orbital elements,

1 24298U 96051B   14332.18301514 -.00000132  00000-0 -45182-4 0  6092
2 24298 070.8583 226.5900 0014060 134.6647 027.9674 14.12453781940222
Epoch (UTC): 28 November 2014 04:23:32
Eccentricity: 0.0014060
inclination: 70.8583°
perigee height: 841 km
apogee height: 861 km
right ascension of ascending node: 226.5900°
argument of perigee: 134.6647°
revolutions per day: 14.12453781
mean anomaly at epoch: 27.9674°
orbit number at epoch: 94022

The dashed part of the orbit path shows where the satellite is in the earth's shadow,  

DLR